Location: Molveno
(46.1500°N, 10.9667°E)
Time: 17:02:52
(UTC+00:00)

Meteor 2-17 Rocket - Pass Details

Date: 05 July 2020
Orbit: 935 x 956 km, 82.5° (Epoch: 11 August)

Event Time Altitude Azimuth Distance (km) Brightness Sun altitude
Exits shadow 21:27:25 24° 171° (S) 1,848 5.4 -16.5°
Maximum altitude 21:31:11 67° 95° (E) 1,015 4.4 -16.8°
Drops below altitude 10° 21:37:11 10° 14° (NNE) 2,658 7.5 -17.3°
Sets 21:39:41 0° 12° (NNE) 3,606 8.4 -17.5°
